Location: Unspecified
(52.4292°N, 19.3359°E)
Time: 12:08:15
(UTC+02:00)

deb Explorer IX - Pass Details

Date: 25 May 2024
Orbit: 510 x 885 km, 38.7° (Epoch: 16 June)

Event Time Altitude Azimuth Distance (km) Brightness Sun altitude
Rises 00:32:38 0° 247° (WSW) 2,911 ? -16.6°
Enters shadow 00:32:47 - 246° (WSW) 2,863 ? -16.6°
Reaches altitude 10° 00:36:47 10° 211° (SSW) 1,901 - -16.6°
Maximum altitude 00:37:57 11° 196° (SSW) 1,812 - -16.6°
Drops below altitude 10° 00:39:06 10° 180° (S) 1,850 - -16.6°
Sets 00:42:55 0° 143° (SE) 2,671 - -16.6°
